| time (UTC) | temp F | wind direction | speed MPH | gust MPH | rain 1hr in | rain 24hr in | rain mn in | humidity % | barometer mb |
| 20260505150548 | 73 | 55 | 3.0 | 11.0 | 0.00 | 0.00 | 0.00 | 50 | 1016.9 |
| 20260505140545 | 69 | 182 | 1.0 | 6.0 | 0.00 | 0.00 | 0.00 | 59 | 1016.8 |
| 20260505124553 | 61 | 129 | 2.0 | 7.0 | 0.00 | 0.00 | 0.00 | 73 | 1016.6 |
| 20260505124046 | 61 | 71 | 3.0 | 7.0 | 0.00 | 0.00 | 0.00 | 73 | 1016.5 |
| 20260505123551 | 61 | 98 | 2.0 | 7.0 | 0.00 | 0.00 | 0.00 | 74 | 1016.5 |
| 20260505123057 | 60 | 52 | 2.0 | 5.0 | 0.00 | 0.00 | 0.00 | 74 | 1016.5 |
| 20260505122549 | 60 | 107 | 2.0 | 5.0 | 0.00 | 0.00 | 0.00 | 74 | 1016.5 |
| 20260505122048 | 59 | 86 | 2.0 | 6.0 | 0.00 | 0.00 | 0.00 | 75 | 1016.5 |
| 20260505121546 | 59 | 34 | 1.0 | 6.0 | 0.00 | 0.00 | 0.00 | 76 | 1016.4 |
| 20260505121047 | 58 | 341 | 1.0 | 3.0 | 0.00 | 0.00 | 0.00 | 75 | 1016.5 |
| 20260505120548 | 58 | 347 | 0.0 | 0.0 | 0.00 | 0.00 | 0.00 | 76 | 1016.6 |
| 20260505120104 | 58 | 0 | 0.0 | 2.0 | 0.00 | 0.00 | 0.00 | 77 | 1016.5 |
| 20260505115550 | 57 | 0 | 0.0 | 2.0 | 0.00 | 0.00 | 0.00 | 78 | 1016.5 |
| 20260505115047 | 56 | 0 | 0.0 | 1.0 | 0.00 | 0.00 | 0.00 | 78 | 1016.5 |
| 20260505114552 | 56 | 0 | 0.0 | 1.0 | 0.00 | 0.00 | 0.00 | 78 | 1016.5 |
| 20260505114047 | 56 | 0 | 0.0 | 1.0 | 0.00 | 0.00 | 0.00 | 79 | 1016.5 |
| 20260505113546 | 55 | 113 | 0.0 | 0.0 | 0.00 | 0.00 | 0.00 | 81 | 1016.3 |
| 20260505113114 | 53 | 0 | 0.0 | 0.0 | 0.00 | 0.00 | 0.00 | 84 | 1016.3 |
| 20260505112545 | 52 | 0 | 0.0 | 2.0 | 0.00 | 0.00 | 0.00 | 86 | 1016.2 |
| 20260505112047 | 50 | 0 | 0.0 | 2.0 | 0.00 | 0.00 | 0.00 | 88 | 1016.2 |
| 20260505111552 | 49 | 0 | 0.0 | 2.0 | 0.00 | 0.00 | 0.00 | 89 | 1016.1 |
| 20260505111048 | 49 | 0 | 0.0 | 0.0 | 0.00 | 0.00 | 0.00 | 89 | 1016.1 |
| 20260505110546 | 48 | 0 | 0.0 | 0.0 | 0.00 | 0.00 | 0.00 | 89 | 1016.1 |
| 20260505102048 | 48 | 0 | 0.0 | 0.0 | 0.00 | 0.00 | 0.00 | 86 | 1016.1 |
| 20260505101547 | 49 | 0 | 0.0 | 0.0 | 0.00 | 0.00 | 0.00 | 87 | 1016.0 |
| 20260505101048 | 49 | 0 | 0.0 | 0.0 | 0.00 | 0.00 | 0.00 | 87 | 1016.0 |
| 20260505100547 | 49 | 0 | 0.0 | 0.0 | 0.00 | 0.00 | 0.00 | 87 | 1016.0 |
| 20260505100055 | 49 | 0 | 0.0 | 0.0 | 0.00 | 0.00 | 0.00 | 86 | 1016.0 |
| 20260505095548 | 49 | 0 | 0.0 | 0.0 | 0.00 | 0.00 | 0.00 | 85 | 1015.9 |
| 20260505095045 | 49 | 0 | 0.0 | 0.0 | 0.00 | 0.00 | 0.00 | 84 | 1015.9 |
| 20260505094551 | 49 | 0 | 0.0 | 0.0 | 0.00 | 0.00 | 0.00 | 85 | 1015.9 |
| 20260505094048 | 49 | 0 | 0.0 | 1.0 | 0.00 | 0.00 | 0.00 | 85 | 1015.9 |
| 20260505093545 | 49 | 0 | 0.0 | 1.0 | 0.00 | 0.00 | 0.00 | 85 | 1015.8 |
| 20260505093059 | 49 | 0 | 0.0 | 0.0 | 0.00 | 0.00 | 0.00 | 85 | 1015.7 |
| 20260505092548 | 49 | 0 | 0.0 | 0.0 | 0.00 | 0.00 | 0.00 | 85 | 1015.6 |
| 20260505092048 | 49 | 0 | 0.0 | 0.0 | 0.00 | 0.00 | 0.00 | 84 | 1015.7 |
| 20260505091553 | 49 | 0 | 0.0 | 0.0 | 0.00 | 0.00 | 0.00 | 83 | 1015.7 |
| 20260505091047 | 50 | 0 | 0.0 | 0.0 | 0.00 | 0.00 | 0.00 | 82 | 1015.6 |
| 20260505090548 | 50 | 0 | 0.0 | 0.0 | 0.00 | 0.00 | 0.00 | 81 | 1015.6 |
| 20260505090054 | 51 | 0 | 0.0 | 1.0 | 0.00 | 0.00 | 0.00 | 80 | 1015.6 |
| 20260505085547 | 51 | 0 | 0.0 | 1.0 | 0.00 | 0.00 | 0.00 | 80 | 1015.5 |
| 20260505085049 | 52 | 99 | 0.0 | 2.0 | 0.00 | 0.00 | 0.00 | 79 | 1015.5 |
| 20260505084556 | 52 | 96 | 0.0 | 3.0 | 0.00 | 0.00 | 0.00 | 79 | 1015.4 |
| 20260505084050 | 52 | 0 | 0.0 | 3.0 | 0.00 | 0.00 | 0.00 | 80 | 1015.2 |
| 20260505083545 | 52 | 0 | 0.0 | 1.0 | 0.00 | 0.00 | 0.00 | 80 | 1015.3 |
| 20260505083055 | 51 | 0 | 0.0 | 1.0 | 0.00 | 0.00 | 0.00 | 80 | 1015.3 |
| 20260505082547 | 51 | 97 | 0.0 | 1.0 | 0.00 | 0.00 | 0.00 | 80 | 1015.2 |
| 20260505082048 | 51 | 0 | 0.0 | 0.0 | 0.00 | 0.00 | 0.00 | 80 | 1015.2 |
| 20260505081554 | 51 | 0 | 0.0 | 0.0 | 0.00 | 0.00 | 0.00 | 79 | 1015.1 |
| 20260505081047 | 51 | 0 | 0.0 | 0.0 | 0.00 | 0.00 | 0.00 | 79 | 1015.0 |
| 20260505080546 | 52 | 0 | 0.0 | 0.0 | 0.00 | 0.00 | 0.00 | 78 | 1015.1 |
| 20260505080103 | 52 | 0 | 0.0 | 0.0 | 0.00 | 0.00 | 0.00 | 77 | 1015.0 |
| 20260505075548 | 53 | 0 | 0.0 | 0.0 | 0.00 | 0.00 | 0.00 | 76 | 1015.0 |
| 20260505075045 | 53 | 0 | 0.0 | 0.0 | 0.00 | 0.00 | 0.00 | 75 | 1015.0 |
| 20260505074555 | 53 | 0 | 0.0 | 0.0 | 0.00 | 0.00 | 0.00 | 74 | 1015.0 |
| 20260505074047 | 54 | 0 | 0.0 | 1.0 | 0.00 | 0.00 | 0.00 | 73 | 1015.0 |
| 20260505073547 | 54 | 0 | 0.0 | 2.0 | 0.00 | 0.00 | 0.00 | 72 | 1015.1 |
| 20260505073110 | 55 | 0 | 0.0 | 2.0 | 0.00 | 0.00 | 0.00 | 72 | 1015.0 |
| 20260505072546 | 55 | 96 | 0.0 | 2.0 | 0.00 | 0.00 | 0.00 | 71 | 1014.9 |
| 20260505072047 | 55 | 94 | 0.0 | 2.0 | 0.00 | 0.00 | 0.00 | 71 | 1014.7 |
| 20260505071555 | 55 | 0 | 0.0 | 2.0 | 0.00 | 0.00 | 0.00 | 70 | 1014.9 |
| 20260505071045 | 56 | 0 | 0.0 | 2.0 | 0.00 | 0.00 | 0.00 | 70 | 1014.9 |
| 20260505070546 | 56 | 0 | 0.0 | 2.0 | 0.00 | 0.00 | 0.00 | 69 | 1014.9 |
| 20260505070055 | 56 | 0 | 0.0 | 3.0 | 0.00 | 0.00 | 0.00 | 68 | 1014.9 |
| 20260505065546 | 56 | 39 | 0.0 | 3.0 | 0.00 | 0.00 | 0.00 | 68 | 1014.9 |
| 20260505065045 | 56 | 0 | 0.0 | 4.0 | 0.00 | 0.00 | 0.00 | 68 | 1014.9 |
| 20260505064600 | 56 | 44 | 0.0 | 4.0 | 0.00 | 0.00 | 0.00 | 67 | 1014.9 |
| 20260505064047 | 56 | 0 | 0.0 | 4.0 | 0.00 | 0.00 | 0.00 | 66 | 1014.9 |
| 20260505063547 | 56 | 0 | 0.0 | 3.0 | 0.00 | 0.00 | 0.00 | 66 | 1014.9 |
| 20260505063101 | 56 | 0 | 0.0 | 3.0 | 0.00 | 0.00 | 0.00 | 65 | 1015.0 |
| 20260505062548 | 56 | 0 | 0.0 | 3.0 | 0.00 | 0.00 | 0.00 | 65 | 1014.9 |
| 20260505062044 | 57 | 130 | 0.0 | 3.0 | 0.00 | 0.00 | 0.00 | 64 | 1014.9 |
| 20260505061557 | 57 | 0 | 0.0 | 2.0 | 0.00 | 0.00 | 0.00 | 63 | 1014.9 |
| 20260505061050 | 57 | 94 | 0.0 | 2.0 | 0.00 | 0.00 | 0.00 | 63 | 1014.9 |
| 20260505060547 | 57 | 97 | 0.0 | 2.0 | 0.00 | 0.00 | 0.00 | 62 | 1014.8 |
| 20260505060100 | 57 | 97 | 0.0 | 2.0 | 0.00 | 0.00 | 0.00 | 61 | 1014.9 |
| 20260505055551 | 58 | 97 | 0.0 | 3.0 | 0.00 | 0.00 | 0.00 | 61 | 1014.7 |
| 20260505055049 | 58 | 0 | 0.0 | 4.0 | 0.00 | 0.00 | 0.00 | 60 | 1014.7 |
| 20260505054555 | 58 | 81 | 1.0 | 4.0 | 0.00 | 0.00 | 0.00 | 60 | 1014.8 |
| 20260505054048 | 57 | 57 | 0.0 | 3.0 | 0.00 | 0.00 | 0.00 | 60 | 1014.8 |
| 20260505053545 | 57 | 283 | 0.0 | 3.0 | 0.00 | 0.00 | 0.00 | 60 | 1014.7 |
| 20260505053114 | 57 | 0 | 0.0 | 3.0 | 0.00 | 0.00 | 0.00 | 59 | 1014.9 |
| 20260505052547 | 58 | 74 | 0.0 | 3.0 | 0.00 | 0.00 | 0.00 | 59 | 1014.8 |
| 20260505052047 | 57 | 0 | 1.0 | 3.0 | 0.00 | 0.00 | 0.00 | 59 | 1014.9 |
| 20260505051553 | 57 | 83 | 0.0 | 3.0 | 0.00 | 0.00 | 0.00 | 59 | 1014.9 |
| 20260505051046 | 57 | 67 | 0.0 | 3.0 | 0.00 | 0.00 | 0.00 | 60 | 1015.0 |
| 20260505050547 | 57 | 0 | 0.0 | 3.0 | 0.00 | 0.00 | 0.00 | 60 | 1014.9 |
| 20260505050104 | 57 | 0 | 0.0 | 1.0 | 0.00 | 0.00 | 0.00 | 58 | 1014.9 |
| 20260505041551 | 58 | 0 | 0.0 | 0.0 | 0.00 | 0.00 | 0.00 | 55 | 1014.9 |
| 20260505041051 | 58 | 0 | 0.0 | 0.0 | 0.00 | 0.00 | 0.00 | 54 | 1014.9 |
| 20260505040549 | 59 | 0 | 0.0 | 0.0 | 0.00 | 0.00 | 0.00 | 53 | 1014.8 |
| 20260505040050 | 59 | 0 | 0.0 | 0.0 | 0.00 | 0.00 | 0.00 | 53 | 1015.0 |
| 20260505035549 | 59 | 0 | 0.0 | 0.0 | 0.00 | 0.00 | 0.00 | 53 | 1015.0 |
| 20260505035046 | 59 | 0 | 0.0 | 0.0 | 0.00 | 0.00 | 0.00 | 53 | 1015.0 |
| 20260505034608 | 59 | 0 | 0.0 | 0.0 | 0.00 | 0.00 | 0.00 | 53 | 1015.1 |
| 20260505034047 | 60 | 0 | 0.0 | 0.0 | 0.00 | 0.00 | 0.00 | 52 | 1015.0 |
| 20260505033547 | 60 | 0 | 0.0 | 3.0 | 0.00 | 0.00 | 0.00 | 52 | 1015.0 |
| 20260505033054 | 60 | 0 | 0.0 | 3.0 | 0.00 | 0.00 | 0.00 | 52 | 1015.1 |
| 20260505032546 | 60 | 0 | 0.0 | 4.0 | 0.00 | 0.00 | 0.00 | 51 | 1015.1 |
| 20260505032045 | 60 | 0 | 0.0 | 4.0 | 0.00 | 0.00 | 0.00 | 54 | 1015.0 |
| 20260505031555 | 60 | 0 | 0.0 | 4.0 | 0.00 | 0.00 | 0.00 | 51 | 1015.1 |
| 20260505031045 | 61 | 0 | 0.0 | 3.0 | 0.00 | 0.00 | 0.00 | 50 | 1015.0 |
| 20260505030547 | 61 | 73 | 0.0 | 3.0 | 0.00 | 0.00 | 0.00 | 50 | 1015.0 |
| 20260505030055 | 61 | 0 | 0.0 | 1.0 | 0.00 | 0.00 | 0.00 | 52 | 1015.2 |
| 20260505025545 | 61 | 0 | 0.0 | 1.0 | 0.00 | 0.00 | 0.00 | 51 | 1015.1 |
| 20260505025047 | 61 | 0 | 0.0 | 3.0 | 0.00 | 0.00 | 0.00 | 52 | 1015.2 |
| 20260505024549 | 61 | 75 | 0.0 | 3.0 | 0.00 | 0.00 | 0.00 | 50 | 1015.1 |
| 20260505024047 | 61 | 66 | 0.0 | 1.0 | 0.00 | 0.00 | 0.00 | 51 | 1015.1 |
| 20260505023545 | 61 | 0 | 0.0 | 1.0 | 0.00 | 0.00 | 0.00 | 51 | 1015.0 |
| 20260505023052 | 61 | 0 | 0.0 | 1.0 | 0.00 | 0.00 | 0.00 | 52 | 1015.0 |
| 20260505022550 | 61 | 0 | 0.0 | 1.0 | 0.00 | 0.00 | 0.00 | 50 | 1015.0 |
| 20260505022047 | 61 | 0 | 0.0 | 2.0 | 0.00 | 0.00 | 0.00 | 50 | 1015.0 |
| 20260505021554 | 61 | 0 | 0.0 | 2.0 | 0.00 | 0.00 | 0.00 | 51 | 1014.9 |
| 20260505021046 | 60 | 98 | 0.0 | 2.0 | 0.00 | 0.00 | 0.00 | 51 | 1014.9 |
| 20260505020548 | 60 | 0 | 0.0 | 1.0 | 0.00 | 0.00 | 0.00 | 54 | 1014.8 |
| 20260505020053 | 60 | 0 | 0.0 | 1.0 | 0.00 | 0.00 | 0.00 | 54 | 1014.8 |
| 20260505015546 | 60 | 0 | 0.0 | 1.0 | 0.00 | 0.00 | 0.00 | 54 | 1014.8 |
| 20260505015048 | 60 | 0 | 0.0 | 1.0 | 0.00 | 0.00 | 0.00 | 55 | 1014.9 |
| 20260505014554 | 60 | 0 | 0.0 | 0.0 | 0.00 | 0.00 | 0.00 | 56 | 1014.8 |
| 20260505014047 | 61 | 0 | 0.0 | 0.0 | 0.00 | 0.00 | 0.00 | 54 | 1014.7 |
| 20260505013545 | 61 | 0 | 0.0 | 1.0 | 0.00 | 0.00 | 0.00 | 51 | 1014.6 |
| 20260505013052 | 62 | 0 | 0.0 | 1.0 | 0.00 | 0.00 | 0.00 | 52 | 1014.6 |
| 20260505012548 | 62 | 0 | 0.0 | 0.0 | 0.00 | 0.00 | 0.00 | 50 | 1014.5 |
| 20260505012047 | 63 | 0 | 0.0 | 0.0 | 0.00 | 0.00 | 0.00 | 50 | 1014.5 |
| 20260505011611 | 63 | 0 | 0.0 | 1.0 | 0.00 | 0.00 | 0.00 | 52 | 1014.4 |
| 20260505011047 | 64 | 0 | 0.0 | 2.0 | 0.00 | 0.00 | 0.00 | 49 | 1014.3 |
| 20260505010545 | 64 | 94 | 0.0 | 2.0 | 0.00 | 0.00 | 0.00 | 44 | 1014.3 |
| 20260505010053 | 65 | 0 | 0.0 | 2.0 | 0.00 | 0.00 | 0.00 | 46 | 1014.2 |
| 20260505005548 | 65 | 0 | 0.0 | 3.0 | 0.00 | 0.00 | 0.00 | 45 | 1014.2 |
| 20260505005049 | 66 | 0 | 0.0 | 3.0 | 0.00 | 0.00 | 0.00 | 46 | 1014.0 |
| 20260505004559 | 65 | 86 | 0.0 | 2.0 | 0.00 | 0.00 | 0.00 | 44 | 1014.0 |
| 20260505004046 | 65 | 0 | 0.0 | 2.0 | 0.00 | 0.00 | 0.00 | 45 | 1013.9 |
| 20260505003547 | 65 | 0 | 0.0 | 2.0 | 0.00 | 0.00 | 0.00 | 44 | 1013.9 |
| 20260505003057 | 66 | 0 | 0.0 | 2.0 | 0.00 | 0.00 | 0.00 | 45 | 1014.0 |
| 20260505002547 | 66 | 69 | 0.0 | 2.0 | 0.00 | 0.00 | 0.00 | 43 | 1014.0 |
| 20260505002047 | 67 | 0 | 0.0 | 0.0 | 0.00 | 0.00 | 0.00 | 43 | 1013.9 |
| 20260505001613 | 67 | 0 | 0.0 | 0.0 | 0.00 | 0.00 | 0.00 | 44 | 1013.9 |
| 20260505001045 | 68 | 0 | 0.0 | 0.0 | 0.00 | 0.00 | 0.00 | 42 | 1013.9 |
| 20260505000545 | 68 | 0 | 0.0 | 0.0 | 0.00 | 0.00 | 0.00 | 41 | 1013.9 |
| 20260505000106 | 69 | 0 | 0.0 | 2.0 | 0.00 | 0.00 | 0.00 | 40 | 1013.8 |
| 20260504235547 | 70 | 0 | 0.0 | 2.0 | 0.00 | 0.00 | 0.00 | 39 | 1013.8 |
| 20260504235049 | 71 | 0 | 0.0 | 2.0 | 0.00 | 0.00 | 0.00 | 38 | 1013.6 |
| 20260504234557 | 72 | 0 | 0.0 | 2.0 | 0.00 | 0.00 | 0.00 | 37 | 1013.6 |
| 20260504234048 | 72 | 0 | 0.0 | 4.0 | 0.00 | 0.00 | 0.00 | 36 | 1013.5 |
| 20260504233546 | 73 | 102 | 1.0 | 5.0 | 0.00 | 0.00 | 0.00 | 35 | 1013.5 |
| 20260504233109 | 73 | 101 | 1.0 | 5.0 | 0.00 | 0.00 | 0.00 | 34 | 1013.5 |
| 20260504232546 | 74 | 92 | 0.0 | 6.0 | 0.00 | 0.00 | 0.00 | 34 | 1013.4 |
| 20260504232046 | 74 | 103 | 2.0 | 6.0 | 0.00 | 0.00 | 0.00 | 34 | 1013.3 |
| 20260504231553 | 74 | 97 | 2.0 | 7.0 | 0.00 | 0.00 | 0.00 | 34 | 1013.3 |
| 20260504231045 | 74 | 101 | 2.0 | 7.0 | 0.00 | 0.00 | 0.00 | 33 | 1013.3 |
| 20260504230548 | 75 | 112 | 1.0 | 6.0 | 0.00 | 0.00 | 0.00 | 33 | 1013.3 |
| 20260504230058 | 75 | 54 | 2.0 | 9.0 | 0.00 | 0.00 | 0.00 | 33 | 1013.3 |
| 20260504225551 | 76 | 76 | 3.0 | 9.0 | 0.00 | 0.00 | 0.00 | 33 | 1013.4 |
| 20260504225049 | 76 | 96 | 3.0 | 9.0 | 0.00 | 0.00 | 0.00 | 33 | 1013.3 |
| 20260504224556 | 77 | 62 | 3.0 | 9.0 | 0.00 | 0.00 | 0.00 | 32 | 1013.3 |
| 20260504224048 | 78 | 263 | 1.0 | 5.0 | 0.00 | 0.00 | 0.00 | 32 | 1013.3 |
| 20260504223547 | 78 | 76 | 2.0 | 5.0 | 0.00 | 0.00 | 0.00 | 32 | 1013.4 |
| 20260504223055 | 78 | 135 | 2.0 | 5.0 | 0.00 | 0.00 | 0.00 | 31 | 1013.5 |
| 20260504222549 | 78 | 0 | 1.0 | 7.0 | 0.00 | 0.00 | 0.00 | 31 | 1013.5 |
| 20260504222047 | 78 | 0 | 2.0 | 12.0 | 0.00 | 0.00 | 0.00 | 31 | 1013.5 |
| 20260504221553 | 78 | 84 | 3.0 | 12.0 | 0.00 | 0.00 | 0.00 | 30 | 1013.6 |
| 20260504221045 | 78 | 38 | 3.0 | 10.0 | 0.00 | 0.00 | 0.00 | 30 | 1013.6 |
| 20260504220546 | 79 | 31 | 2.0 | 6.0 | 0.00 | 0.00 | 0.00 | 31 | 1013.4 |
| 20260504220052 | 79 | 91 | 2.0 | 6.0 | 0.00 | 0.00 | 0.00 | 30 | 1013.5 |
| 20260504215547 | 79 | 105 | 2.0 | 6.0 | 0.00 | 0.00 | 0.00 | 31 | 1013.5 |
| 20260504215047 | 79 | 22 | 2.0 | 5.0 | 0.00 | 0.00 | 0.00 | 31 | 1013.4 |
| 20260504214549 | 79 | 92 | 2.0 | 6.0 | 0.00 | 0.00 | 0.00 | 31 | 1013.5 |
| 20260504214047 | 79 | 60 | 1.0 | 12.0 | 0.00 | 0.00 | 0.00 | 32 | 1013.5 |
| 20260504213548 | 78 | 338 | 3.0 | 12.0 | 0.00 | 0.00 | 0.00 | 32 | 1013.4 |
| 20260504213054 | 78 | 114 | 3.0 | 10.0 | 0.00 | 0.00 | 0.00 | 32 | 1013.4 |
| 20260504212548 | 78 | 79 | 5.0 | 10.0 | 0.00 | 0.00 | 0.00 | 32 | 1013.5 |
| 20260504212048 | 78 | 91 | 4.0 | 10.0 | 0.00 | 0.00 | 0.00 | 32 | 1013.5 |
| 20260504211552 | 78 | 347 | 3.0 | 10.0 | 0.00 | 0.00 | 0.00 | 32 | 1013.4 |
| 20260504211048 | 79 | 107 | 2.0 | 10.0 | 0.00 | 0.00 | 0.00 | 32 | 1013.5 |
| 20260504210546 | 78 | 0 | 4.0 | 10.0 | 0.00 | 0.00 | 0.00 | 32 | 1013.5 |
| 20260504210052 | 78 | 25 | 3.0 | 9.0 | 0.00 | 0.00 | 0.00 | 33 | 1013.5 |
| 20260504205547 | 78 | 28 | 4.0 | 11.0 | 0.00 | 0.00 | 0.00 | 31 | 1013.6 |
| 20260504205047 | 78 | 115 | 5.0 | 11.0 | 0.00 | 0.00 | 0.00 | 33 | 1013.6 |
| 20260504204601 | 78 | 125 | 5.0 | 11.0 | 0.00 | 0.00 | 0.00 | 32 | 1013.7 |
| 20260504204047 | 79 | 50 | 4.0 | 11.0 | 0.00 | 0.00 | 0.00 | 32 | 1013.7 |
| 20260504203547 | 79 | 327 | 4.0 | 10.0 | 0.00 | 0.00 | 0.00 | 34 | 1013.7 |
| 20260504203058 | 79 | 31 | 3.0 | 9.0 | 0.00 | 0.00 | 0.00 | 33 | 1013.7 |
| 20260504202547 | 78 | 72 | 3.0 | 9.0 | 0.00 | 0.00 | 0.00 | 34 | 1013.7 |
| 20260504202051 | 78 | 132 | 4.0 | 9.0 | 0.00 | 0.00 | 0.00 | 33 | 1013.8 |
| 20260504201551 | 78 | 45 | 2.0 | 9.0 | 0.00 | 0.00 | 0.00 | 33 | 1013.9 |
| 20260504201046 | 78 | 67 | 3.0 | 9.0 | 0.00 | 0.00 | 0.00 | 33 | 1014.0 |
| 20260504200547 | 78 | 78 | 4.0 | 9.0 | 0.00 | 0.00 | 0.00 | 33 | 1013.9 |
| 20260504195545 | 78 | 280 | 3.0 | 10.0 | 0.00 | 0.00 | 0.00 | 34 | 1014.0 |
| 20260504195047 | 79 | 242 | 3.0 | 10.0 | 0.00 | 0.00 | 0.00 | 33 | 1014.1 |
| 20260504194603 | 78 | 37 | 2.0 | 15.0 | 0.00 | 0.00 | 0.00 | 34 | 1014.2 |
| 20260504194047 | 78 | 126 | 2.0 | 15.0 | 0.00 | 0.00 | 0.00 | 34 | 1014.3 |
| 20260504193544 | 78 | 78 | 1.0 | 8.0 | 0.00 | 0.00 | 0.00 | 34 | 1014.2 |
| 20260504193102 | 77 | 295 | 3.0 | 9.0 | 0.00 | 0.00 | 0.00 | 35 | 1014.3 |
| 20260504192546 | 77 | 69 | 3.0 | 9.0 | 0.00 | 0.00 | 0.00 | 34 | 1014.4 |
| 20260504192048 | 77 | 336 | 2.0 | 9.0 | 0.00 | 0.00 | 0.00 | 35 | 1014.5 |
| 20260504191612 | 78 | 312 | 4.0 | 9.0 | 0.00 | 0.00 | 0.00 | 35 | 1014.6 |
| 20260504191048 | 78 | 40 | 3.0 | 10.0 | 0.00 | 0.00 | 0.00 | 34 | 1014.7 |
| 20260504190551 | 77 | 44 | 3.0 | 10.0 | 0.00 | 0.00 | 0.00 | 34 | 1014.7 |
| 20260504190051 | 77 | 166 | 3.0 | 9.0 | 0.00 | 0.00 | 0.00 | 35 | 1014.8 |
| 20260504185544 | 77 | 122 | 1.0 | 8.0 | 0.00 | 0.00 | 0.00 | 36 | 1014.9 |
| 20260504185046 | 76 | 0 | 3.0 | 9.0 | 0.00 | 0.00 | 0.00 | 35 | 1015.1 |
| 20260504184553 | 76 | 75 | 2.0 | 10.0 | 0.00 | 0.00 | 0.00 | 37 | 1015.1 |
| 20260504184045 | 76 | 74 | 3.0 | 11.0 | 0.00 | 0.00 | 0.00 | 36 | 1015.0 |
| 20260504183545 | 76 | 303 | 3.0 | 11.0 | 0.00 | 0.00 | 0.00 | 36 | 1015.1 |
| 20260504183053 | 76 | 70 | 5.0 | 10.0 | 0.00 | 0.00 | 0.00 | 36 | 1015.2 |
| 20260504182545 | 76 | 119 | 3.0 | 9.0 | 0.00 | 0.00 | 0.00 | 37 | 1015.1 |
| 20260504182045 | 75 | 85 | 3.0 | 9.0 | 0.00 | 0.00 | 0.00 | 37 | 1015.1 |
| 20260504181557 | 75 | 135 | 2.0 | 10.0 | 0.00 | 0.00 | 0.00 | 37 | 1015.1 |
| 20260504181045 | 75 | 63 | 3.0 | 10.0 | 0.00 | 0.00 | 0.00 | 36 | 1015.2 |
| 20260504180546 | 75 | 72 | 4.0 | 10.0 | 0.00 | 0.00 | 0.00 | 36 | 1015.3 |
| 20260504180052 | 75 | 55 | 3.0 | 9.0 | 0.00 | 0.00 | 0.00 | 36 | 1015.4 |
| 20260504175546 | 75 | 163 | 1.0 | 9.0 | 0.00 | 0.00 | 0.00 | 37 | 1015.3 |
| 20260504175045 | 75 | 83 | 4.0 | 10.0 | 0.00 | 0.00 | 0.00 | 36 | 1015.4 |
| 20260504174551 | 75 | 119 | 2.0 | 10.0 | 0.00 | 0.00 | 0.00 | 37 | 1015.4 |
| 20260504174046 | 75 | 71 | 3.0 | 13.0 | 0.00 | 0.00 | 0.00 | 39 | 1015.6 |
| 20260504173550 | 74 | 69 | 4.0 | 13.0 | 0.00 | 0.00 | 0.00 | 39 | 1015.5 |
| 20260504173050 | 74 | 167 | 3.0 | 10.0 | 0.00 | 0.00 | 0.00 | 38 | 1015.5 |
| 20260504172550 | 74 | 314 | 4.0 | 9.0 | 0.00 | 0.00 | 0.00 | 38 | 1015.6 |
| 20260504172045 | 74 | 103 | 1.0 | 9.0 | 0.00 | 0.00 | 0.00 | 39 | 1015.6 |
| 20260504171552 | 74 | 327 | 3.0 | 9.0 | 0.00 | 0.00 | 0.00 | 38 | 1015.6 |
| 20260504171045 | 73 | 238 | 2.0 | 12.0 | 0.00 | 0.00 | 0.00 | 40 | 1015.7 |
| 20260504170547 | 72 | 74 | 3.0 | 12.0 | 0.00 | 0.00 | 0.00 | 40 | 1015.9 |
| 20260504151050 | 68 | 143 | 2.0 | 9.0 | 0.00 | 0.00 | 0.00 | 42 | 1017.3 |